When you browse on this site, cookies collect data to enhance your experience and personalize the content and advertising you see.
Visit our Privacy Policy to learn more. By continuing to use the site, you agree to this use of cookies and data.
  • In Hungary
  • List of Countries
  • For 7 days
  • Water Temperature
  • Satellite Maps
  • Weather Map
  • News
  • Weather Widgets
  • user-avatar
    Login

    Hourly Weather Stow

    Today, 18 December, Tuesday

    Time Temperature Precipitation Wind Pressure Humidity
    00:00 -4°C° 0 mm 3 mps 734 mmHg 78%
    01:00 -1°C° 0 mm 1 mps 735 mmHg 83%
    02:00 -3°C° 0 mm 2 mps 735 mmHg 83%
    03:00 -3°C° 0 mm 2 mps 735 mmHg 82%
    04:00 -3°C° 0 mm 2 mps 735 mmHg 81%
    05:00 -3°C° 0 mm 2 mps 736 mmHg 81%
    06:00 -3°C° 0 mm 2 mps 736 mmHg 82%
    07:00 -3°C° 0 mm 2 mps 736 mmHg 82%
    08:00 -3°C° 0 mm 2 mps 737 mmHg 77%
    09:00 -2°C° 0 mm 2 mps 737 mmHg 73%
    10:00 -1°C° 0 mm 2 mps 737 mmHg 69%
    11:00 -1°C° 0 mm 2 mps 737 mmHg 65%
    12:00 +2°C° 0 mm 1 mps 737 mmHg 60%
    13:00 +3°C° 0 mm 1 mps 737 mmHg 56%
    14:00 +3°C° 0 mm 1 mps 737 mmHg 57%
    15:00 +3°C° 0 mm 1 mps 736 mmHg 58%
    16:00 +3°C° 0 mm 1 mps 736 mmHg 59%
    17:00 +2°C° 0 mm 1 mps 736 mmHg 62%
    18:00 +1°C° 0 mm 1 mps 736 mmHg 66%
    19:00 0°C° 0 mm 1 mps 736 mmHg 70%
    20:00 0°C° 0 mm 1 mps 735 mmHg 70%
    21:00 0°C° 0 mm 1 mps 735 mmHg 70%
    22:00 -3°C° 0 mm 2 mps 735 mmHg 70%
    23:00 -3°C° 0 mm 2 mps 735 mmHg 70%

    Tomorrow, 19 December, Wednesday

    Time Temperature Precipitation Wind Pressure Humidity
    00:00 -3°C° 0 mm 2 mps 735 mmHg 70%
    01:00 -3°C° 0 mm 2 mps 734 mmHg 70%
    02:00 -3°C° 0 mm 2 mps 734 mmHg 71%
    03:00 -3°C° 0 mm 2 mps 734 mmHg 71%
    04:00 -3°C° 0 mm 2 mps 733 mmHg 72%
    05:00 -3°C° 0 mm 2 mps 733 mmHg 72%
    06:00 -4°C° 0 mm 3 mps 733 mmHg 73%
    07:00 -4°C° 0 mm 3 mps 733 mmHg 73%
    08:00 -2°C° 0 mm 3 mps 733 mmHg 70%
    09:00 -1°C° 0 mm 3 mps 733 mmHg 66%
    10:00 0°C° 0 mm 3 mps 733 mmHg 63%
    11:00 +1°C° 0 mm 3 mps 732 mmHg 59%
    12:00 +3°C° 0 mm 4 mps 732 mmHg 56%
    13:00 +4°C° 0 mm 4 mps 731 mmHg 52%
    14:00 +4°C° 0 mm 4 mps 731 mmHg 55%
    15:00 +4°C° 0 mm 3 mps 730 mmHg 58%
    16:00 +4°C° 0 mm 3 mps 730 mmHg 61%
    17:00 +3°C° 0 mm 3 mps 730 mmHg 67%
    18:00 +1°C° 0 mm 3 mps 730 mmHg 73%
    19:00 0°C° 0 mm 3 mps 730 mmHg 79%
    20:00 0°C° 0 mm 3 mps 730 mmHg 81%
    21:00 -1°C° 0 mm 4 mps 730 mmHg 83%
    22:00 -1°C° 0 mm 4 mps 730 mmHg 85%
    23:00 -1°C° 0 mm 4 mps 729 mmHg 86%

    Day after tomorrow, 20 December, Thursday

    Time Temperature Precipitation Wind Pressure Humidity
    00:00 0°C° 0 mm 3 mps 729 mmHg 87%
    01:00 0°C° 0 mm 3 mps 729 mmHg 87%
    02:00 0°C° 0 mm 3 mps 729 mmHg 88%
    03:00 0°C° 0 mm 3 mps 729 mmHg 89%
    04:00 +1°C° 0 mm 3 mps 729 mmHg 90%
    05:00 +1°C° 0 mm 3 mps 728 mmHg 90%
    06:00 +1°C° 0 mm 3 mps 728 mmHg 90%
    07:00 +1°C° 0 mm 3 mps 728 mmHg 90%
    08:00 +2°C° 0.1 mm 3 mps 728 mmHg 89%
    09:00 +3°C° 0.1 mm 3 mps 728 mmHg 87%
    10:00 +3°C° 0.1 mm 4 mps 728 mmHg 85%
    11:00 +3°C° 0.3 mm 4 mps 728 mmHg 86%
    12:00 +4°C° 0.3 mm 3 mps 727 mmHg 87%
    13:00 +4°C° 0.3 mm 3 mps 727 mmHg 87%
    14:00 +4°C° 0.2 mm 3 mps 726 mmHg 88%
    15:00 +4°C° 0.2 mm 3 mps 726 mmHg 90%
    16:00 +4°C° 0.2 mm 3 mps 725 mmHg 91%
    17:00 +4°C° 0.1 mm 3 mps 725 mmHg 91%
    18:00 +4°C° 0.1 mm 2 mps 725 mmHg 91%
    19:00 +4°C° 0.1 mm 2 mps 725 mmHg 91%
    20:00 +4°C° 0.1 mm 2 mps 724 mmHg 91%
    21:00 +4°C° 0.1 mm 2 mps 724 mmHg 91%
    22:00 +4°C° 0.1 mm 2 mps 723 mmHg 91%
    23:00 +4°C° 0.2 mm 2 mps 723 mmHg 92%

    21 December, Friday

    Time Temperature Precipitation Wind Pressure Humidity
    00:00 +4°C° 0.2 mm 2 mps 722 mmHg 94%
    01:00 +4°C° 0.2 mm 2 mps 721 mmHg 96%
    02:00 +3°C° 0.8 mm 3 mps 720 mmHg 96%
    03:00 +3°C° 0.8 mm 3 mps 719 mmHg 96%
    04:00 +3°C° 0.8 mm 4 mps 718 mmHg 96%
    05:00 +3°C° 1.4 mm 4 mps 718 mmHg 96%
    06:00 +3°C° 1.4 mm 4 mps 718 mmHg 96%
    07:00 +2°C° 1.4 mm 5 mps 717 mmHg 95%
    08:00 +2°C° 1.3 mm 5 mps 717 mmHg 94%
    09:00 +2°C° 1.3 mm 6 mps 717 mmHg 94%
    10:00 +2°C° 1.3 mm 6 mps 716 mmHg 93%
    11:00 +2°C° 0.7 mm 6 mps 716 mmHg 93%
    12:00 +2°C° 0.7 mm 6 mps 716 mmHg 92%
    13:00 +2°C° 0.7 mm 6 mps 715 mmHg 92%
    14:00 +2°C° 0.9 mm 6 mps 715 mmHg 92%
    15:00 +2°C° 0.9 mm 7 mps 715 mmHg 92%
    16:00 +2°C° 0.9 mm 7 mps 715 mmHg 91%
    17:00 +2°C° 0.6 mm 7 mps 715 mmHg 91%
    18:00 +2°C° 0.6 mm 7 mps 715 mmHg 91%
    19:00 +2°C° 0.6 mm 7 mps 716 mmHg 91%
    20:00 +1°C° 0.6 mm 8 mps 716 mmHg 90%
    21:00 +1°C° 0.6 mm 8 mps 716 mmHg 90%
    22:00 +1°C° 0.6 mm 8 mps 717 mmHg 90%
    23:00 0°C° 0.3 mm 8 mps 717 mmHg 89%

    22 December, Saturday

    Time Temperature Precipitation Wind Pressure Humidity
    00:00 0°C° 0.3 mm 8 mps 718 mmHg 89%
    01:00 0°C° 0.3 mm 8 mps 718 mmHg 89%
    02:00 0°C° 0.3 mm 8 mps 719 mmHg 88%
    03:00 0°C° 0.3 mm 8 mps 720 mmHg 88%
    04:00 -1°C° 0.3 mm 8 mps 721 mmHg 87%
    05:00 -1°C° 0.1 mm 8 mps 722 mmHg 87%
    06:00 -1°C° 0.1 mm 7 mps 722 mmHg 87%
    07:00 -1°C° 0.1 mm 7 mps 723 mmHg 87%
    08:00 -1°C° 0.1 mm 6 mps 724 mmHg 87%
    09:00 -1°C° 0.1 mm 6 mps 725 mmHg 87%
    10:00 -1°C° 0.1 mm 6 mps 726 mmHg 86%
    11:00 -1°C° 0 mm 6 mps 726 mmHg 85%
    12:00 -1°C° 0 mm 6 mps 726 mmHg 84%
    13:00 -1°C° 0 mm 6 mps 726 mmHg 83%
    14:00 0°C° 0 mm 5 mps 726 mmHg 82%
    15:00 0°C° 0 mm 5 mps 726 mmHg 81%
    16:00 0°C° 0 mm 5 mps 727 mmHg 81%
    17:00 0°C° 0 mm 5 mps 727 mmHg 81%
    18:00 0°C° 0 mm 4 mps 727 mmHg 82%
    19:00 -1°C° 0 mm 4 mps 728 mmHg 83%
    20:00 -1°C° 0 mm 4 mps 728 mmHg 83%
    21:00 -1°C° 0 mm 4 mps 728 mmHg 82%
    22:00 0°C° 0 mm 4 mps 728 mmHg 82%
    23:00 0°C° 0.1 mm 4 mps 728 mmHg 83%

    23 December, Sunday

    Time Temperature Precipitation Wind Pressure Humidity
    00:00 0°C° 0.1 mm 5 mps 728 mmHg 84%
    01:00 0°C° 0.1 mm 5 mps 728 mmHg 85%
    02:00 -1°C° 0 mm 5 mps 729 mmHg 84%
    03:00 -2°C° 0 mm 6 mps 729 mmHg 84%
    04:00 -2°C° 0 mm 6 mps 730 mmHg 83%
    05:00 -2°C° 0 mm 6 mps 730 mmHg 83%
    06:00 -3°C° 0 mm 6 mps 731 mmHg 82%
    07:00 -2°C° 0 mm 5 mps 731 mmHg 81%
    08:00 -3°C° 0 mm 6 mps 732 mmHg 79%
    09:00 -3°C° 0 mm 6 mps 732 mmHg 76%
    10:00 -3°C° 0 mm 6 mps 733 mmHg 74%
    11:00 -3°C° 0 mm 6 mps 733 mmHg 72%
    12:00 -3°C° 0 mm 6 mps 733 mmHg 71%
    13:00 -3°C° 0 mm 6 mps 733 mmHg 70%
    14:00 -3°C° 0 mm 6 mps 733 mmHg 69%
    15:00 -4°C° 0 mm 6 mps 733 mmHg 69%
    16:00 -4°C° 0 mm 6 mps 733 mmHg 68%
    17:00 -4°C° 0 mm 6 mps 734 mmHg 69%
    18:00 -4°C° 0 mm 5 mps 734 mmHg 69%
    19:00 -4°C° 0 mm 5 mps 735 mmHg 70%
    20:00 -4°C° 0 mm 5 mps 735 mmHg 70%
    21:00 -5°C° 0 mm 5 mps 735 mmHg 70%
    22:00 -5°C° 0 mm 5 mps 735 mmHg 69%
    23:00 -5°C° 0 mm 5 mps 735 mmHg 69%
    Show more